Date String (YYYY-MM-DD hh:mm:ss) UTC,Instrument flags,absolute air pressure of the measurement (hPa),sample flow rate (lpm),inlet stack bypass flow (lpm),air temperature of the measurement (°C),ambient temperature measured by the external sensor (°C),aerosol sample conditioner tube jacket temperature (°C),OPC LED temperature (°C),internal box temperature (°C),relative humidity of the measurement (%),span deviation,mass concentration of particles derived from Lorenz-Mie calculation of OPC scattering (μg/m³),mass concentration of particles derived from Lorenz-Mie calculation of OPC scattering (μg/m³),mass concentration of particles derived from Lorenz-Mie calculation of OPC scattering (μg/m³)
DateTimeUTC,F1_M11,P_M11,Q1_M11,Q2_M11,T1_M11,T2_M11,T3_M11,T4_M11,T5_M11,U1_M11,ZSPAN_M11,X0_M11,X2_M11,X1_M11
2024-03-11 02:00:00,SystemResetWarning,0827.0,5.00,000.00,025.4,024.2,000.0,034.2,027.1,04.3,0000.0,0019.59,0005.07,0001.85
2024-03-11 02:01:00,SystemResetWarning,0826.9,5.00,000.00,025.4,024.2,000.0,034.2,027.1,04.3,0000.0,0019.66,0005.06,0001.87
2024-03-11 02:02:00,SystemResetWarning,0826.9,5.00,000.00,025.4,024.2,000.0,034.2,027.1,04.3,0000.0,0020.10,0005.13,0001.87
2024-03-11 02:03:00,SystemResetWarning,0827.0,5.01,000.00,025.4,024.2,000.0,034.1,027.1,04.4,0000.0,0019.13,0005.05,0001.85
2024-03-11 02:04:00,SystemResetWarning,0826.9,5.01,000.00,025.3,024.1,000.0,034.1,027.0,04.6,0000.0,0018.65,0005.01,0001.86
2024-03-11 02:05:00,SystemResetWarning,0827.0,5.00,000.00,025.3,024.1,000.0,034.1,027.0,04.5,0000.0,0017.49,0004.93,0001.86
2024-03-11 02:06:00,SystemResetWarning,0826.9,4.99,000.00,025.3,024.1,000.0,034.1,027.0,04.4,0000.0,0017.74,0004.96,0001.87
2024-03-11 02:07:00,SystemResetWarning,0827.0,4.99,000.00,025.3,024.0,000.0,034.0,027.0,04.4,0000.0,0018.44,0004.97,0001.87
2024-03-11 02:08:00,SystemResetWarning,0827.0,5.00,000.00,025.3,024.0,000.0,034.0,027.0,04.5,0000.0,0017.48,0004.98,0001.86
2024-03-11 02:09:00,SystemResetWarning,0827.0,5.01,000.00,025.2,024.0,000.0,034.0,026.9,04.3,0000.0,0017.40,0005.04,0001.85
2024-03-11 02:10:00,SystemResetWarning,0827.0,5.00,000.00,025.2,024.0,000.0,034.0,026.9,04.5,0000.0,0017.10,0005.07,0001.84
2024-03-11 02:11:00,SystemResetWarning,0827.0,5.01,000.00,025.2,023.9,000.0,034.0,026.9,04.8,0000.0,0017.17,0005.08,0001.84
2024-03-11 02:12:00,SystemResetWarning,0827.0,4.99,000.00,025.2,023.9,000.0,033.9,026.9,05.1,0000.0,0017.28,0005.07,0001.81
2024-03-11 02:13:00,SystemResetWarning,0827.0,5.00,000.00,025.1,023.9,000.0,033.9,026.9,04.7,0000.0,0016.60,0005.05,0001.82
2024-03-11 02:14:00,SystemResetWarning,0827.0,4.99,000.00,025.1,023.9,000.0,033.9,026.8,04.5,0000.0,0016.67,0005.01,0001.84
2024-03-11 02:15:00,SystemResetWarning,0827.0,5.00,000.00,025.1,023.9,000.0,033.9,026.8,04.7,0000.0,0016.54,0005.01,0001.86
2024-03-11 02:16:00,SystemResetWarning,0827.0,5.00,000.00,025.1,023.8,000.0,033.9,026.8,04.6,0000.0,0016.92,0005.12,0001.88
2024-03-11 02:17:00,SystemResetWarning,0827.0,5.00,000.00,025.1,023.8,000.0,033.8,026.7,04.4,0000.0,0016.49,0005.12,0001.88
2024-03-11 02:18:00,SystemResetWarning,0827.0,5.00,000.00,025.0,023.8,000.0,033.8,026.7,04.1,0000.0,0015.71,0005.05,0001.87
2024-03-11 02:19:00,SystemResetWarning,0826.9,5.00,000.00,025.0,023.7,000.0,033.8,026.7,04.0,0000.0,0016.31,0005.11,0001.88
2024-03-11 02:20:00,SystemResetWarning,0827.0,5.00,000.00,025.0,023.7,000.0,033.8,026.7,03.9,0000.0,0016.01,0005.15,0001.90
2024-03-11 02:21:00,SystemResetWarning,0827.0,5.00,000.00,025.0,023.7,000.0,033.7,026.6,03.9,0000.0,0016.69,0005.18,0001.92
2024-03-11 02:22:00,SystemResetWarning,0826.9,5.00,000.00,024.9,023.7,000.0,033.7,026.6,03.9,0000.0,0016.68,0005.25,0001.95
2024-03-11 02:23:00,SystemResetWarning,0826.9,5.00,000.00,024.9,023.7,000.0,033.7,026.6,04.0,0000.0,0016.66,0005.28,0001.96
2024-03-11 02:24:00,SystemResetWarning,0826.9,5.00,000.00,024.9,023.6,000.0,033.7,026.6,03.9,0000.0,0016.83,0005.32,0001.97
2024-03-11 02:25:00,SystemResetWarning,0826.9,4.99,000.00,024.9,023.6,000.0,033.7,026.6,03.9,0000.0,0016.96,0005.34,0001.97
2024-03-11 02:26:00,SystemResetWarning,0826.9,5.00,000.00,024.9,023.6,000.0,033.6,026.6,04.4,0000.0,0017.42,0005.38,0001.97
2024-03-11 02:27:00,SystemResetWarning,0826.9,5.00,000.00,024.8,023.6,000.0,033.6,026.6,03.8,0000.0,0017.65,0005.35,0001.98
2024-03-11 02:28:00,SystemResetWarning,0827.0,5.00,000.00,024.8,023.6,000.0,033.6,026.5,04.0,0000.0,0017.89,0005.36,0001.98
2024-03-11 02:29:00,SystemResetWarning,0827.0,5.01,000.00,024.8,023.5,000.0,033.6,026.5,03.9,0000.0,0018.24,0005.40,0001.97
2024-03-11 02:30:00,SystemResetWarning,0826.9,5.00,000.00,024.8,023.6,000.0,033.5,026.5,04.2,0000.0,0017.62,0005.32,0001.96
2024-03-11 02:31:00,SystemResetWarning,0826.9,4.99,000.00,024.8,023.5,000.0,033.5,026.5,04.2,0000.0,0017.59,0005.25,0001.94
2024-03-11 02:32:00,SystemResetWarning,0827.0,5.00,000.00,024.7,023.5,000.0,033.5,026.5,04.0,0000.0,0017.86,0005.28,0001.94
2024-03-11 02:33:00,SystemResetWarning,0826.9,5.00,000.00,024.7,023.5,000.0,033.5,026.5,03.9,0000.0,0018.67,0005.26,0001.91
2024-03-11 02:34:00,SystemResetWarning,0827.0,5.00,000.00,024.7,023.5,000.0,033.5,026.5,04.0,0000.0,0018.42,0005.23,0001.93
2024-03-11 02:35:00,SystemResetWarning,0827.0,5.00,000.00,024.7,023.5,000.0,033.5,026.5,03.8,0000.0,0018.18,0005.17,0001.91
2024-03-11 02:36:00,SystemResetWarning,0827.0,5.00,000.00,024.7,023.5,000.0,033.4,026.4,04.0,0000.0,0019.01,0005.21,0001.93
2024-03-11 02:37:00,SystemResetWarning,0826.9,5.01,000.00,024.7,023.5,000.0,033.4,026.4,03.9,0000.0,0019.20,0005.22,0001.94
2024-03-11 02:38:00,SystemResetWarning,0827.0,5.00,000.00,024.6,023.5,000.0,033.4,026.4,04.1,0000.0,0019.69,0005.24,0001.95
2024-03-11 02:39:00,SystemResetWarning,0826.9,4.99,000.00,024.6,023.4,000.0,033.4,026.4,04.1,0000.0,0019.72,0005.26,0001.96
2024-03-11 02:40:00,SystemResetWarning,0826.9,4.99,000.00,024.6,023.4,000.0,033.4,026.4,04.3,0000.0,0019.56,0005.28,0001.98
2024-03-11 02:41:00,SystemResetWarning,0826.9,4.99,000.00,024.6,023.4,000.0,033.3,026.4,04.5,0000.0,0019.33,0005.33,0002.01
2024-03-11 02:42:00,SystemResetWarning,0827.0,5.00,000.00,024.6,023.4,000.0,033.3,026.4,04.5,0000.0,0019.59,0005.36,0002.03
2024-03-11 02:43:00,SystemResetWarning,0826.9,5.01,000.00,024.6,023.4,000.0,033.3,026.3,04.5,0000.0,0019.21,0005.42,0002.04
2024-03-11 02:44:00,SystemResetWarning,0827.0,5.01,000.00,024.5,023.4,000.0,033.3,026.3,04.5,0000.0,0018.07,0005.35,0002.05
2024-03-11 02:45:00,SystemResetWarning,0827.0,5.00,000.00,024.5,023.4,000.0,033.3,026.3,04.6,0000.0,0017.62,0005.32,0002.04
2024-03-11 02:46:00,SystemResetWarning,0826.9,5.01,000.00,024.5,023.3,000.0,033.3,026.2,04.6,0000.0,0017.40,0005.31,0002.05
2024-03-11 02:47:00,SystemResetWarning,0827.0,5.00,000.00,024.5,023.3,000.0,033.2,026.2,04.5,0000.0,0017.20,0005.29,0002.05
2024-03-11 02:48:00,SystemResetWarning,0827.0,4.99,000.00,024.5,023.3,000.0,033.2,026.2,04.6,0000.0,0016.61,0005.25,0002.04
2024-03-11 02:49:00,SystemResetWarning,0827.0,4.99,000.00,024.4,023.3,000.0,033.2,026.2,04.6,0000.0,0016.96,0005.25,0002.01
2024-03-11 02:50:00,SystemResetWarning,0826.9,5.00,000.00,024.4,023.3,000.0,033.2,026.2,04.7,0000.0,0016.34,0005.28,0001.99
2024-03-11 02:51:00,SystemResetWarning,0826.9,5.00,000.00,024.4,023.3,000.0,033.2,026.1,04.7,0000.0,0016.61,0005.23,0001.98
2024-03-11 02:52:00,SystemResetWarning,0826.9,5.01,000.00,024.4,023.2,000.0,033.1,026.1,04.8,0000.0,0016.92,0005.18,0001.97
2024-03-11 02:53:00,SystemResetWarning,0826.9,5.00,000.00,024.4,023.2,000.0,033.1,026.1,04.9,0000.0,0016.94,0005.19,0001.98
2024-03-11 02:54:00,SystemResetWarning,0826.9,5.00,000.00,024.3,023.1,000.0,033.1,026.0,05.0,0000.0,0017.41,0005.18,0001.97
2024-03-11 02:55:00,SystemResetWarning,0826.9,5.00,000.00,024.3,023.1,000.0,033.1,026.1,05.1,0000.0,0018.17,0005.21,0001.97
2024-03-11 02:56:00,SystemResetWarning,0827.0,4.99,000.00,024.3,023.1,000.0,033.1,026.1,04.9,0000.0,0018.41,0005.33,0001.99
2024-03-11 02:57:00,SystemResetWarning,0826.9,5.00,000.00,024.3,023.0,000.0,033.1,026.0,05.0,0000.0,0018.88,0005.41,0001.98
2024-03-11 02:58:00,SystemResetWarning,0826.9,5.00,000.00,024.3,023.0,000.0,033.0,026.0,05.0,0000.0,0018.84,0005.53,0001.99
2024-03-11 02:59:00,SystemResetWarning,0826.9,5.00,000.00,024.2,023.0,000.0,033.0,026.0,05.0,0000.0,0018.27,0005.53,0001.98
